DLH47L EDDH-EDDB

Flight info

Callsign DLH47L
Flight time N/A
Altitude 23000
Route RAMAR6G/33 RAMAR Z998 PITEN L619 VIBIS T209 OGBER
Aircraft A321/M-SDE3FGHIRWY/LB1

Departure

Time N/A
Airport Hamburg Helmut Schmidt Airport (EDDH)

Arrival

Time 2026-05-05 16:37
Airport Berlin Brandenburg Airport (EDDB)
Time Latitude Longitude Altitude Speed Heading
2026-05-05 16:05 53.11597 11.61953 22895 ft 437 kts 141°
2026-05-05 16:05 53.09355 11.65373 22894 ft 437 kts 141°
2026-05-05 16:05 53.07116 11.68788 22888 ft 436 kts 141°
2026-05-05 16:06 53.04910 11.72153 22891 ft 436 kts 141°
2026-05-05 16:06 53.02745 11.75707 22874 ft 438 kts 134°
2026-05-05 16:06 53.00962 11.79839 22875 ft 443 kts 123°
2026-05-05 16:06 52.99656 11.84484 22869 ft 446 kts 112°
2026-05-05 16:07 52.98886 11.89489 22868 ft 450 kts 101°
2026-05-05 16:07 52.98643 11.94675 22867 ft 451 kts 94°
2026-05-05 16:07 52.98508 11.99880 22866 ft 451 kts 94°
2026-05-05 16:07 52.98367 12.05086 22865 ft 452 kts 95°
2026-05-05 16:08 52.98220 12.10292 22863 ft 452 kts 95°
2026-05-05 16:08 52.98069 12.15498 22863 ft 452 kts 95°
2026-05-05 16:08 52.97901 12.20701 22861 ft 451 kts 97°
2026-05-05 16:08 52.97390 12.25772 22628 ft 440 kts 107°
2026-05-05 16:09 52.96415 12.30509 21989 ft 429 kts 117°
2026-05-05 16:09 52.94934 12.34750 21343 ft 420 kts 129°
2026-05-05 16:09 52.93018 12.38314 20715 ft 411 kts 141°
2026-05-05 16:09 52.90791 12.41131 20064 ft 404 kts 150°
2026-05-05 16:10 52.88432 12.43639 19420 ft 402 kts 149°
2026-05-05 16:10 52.86090 12.46137 18815 ft 399 kts 149°
2026-05-05 16:10 52.83768 12.48622 18202 ft 396 kts 149°
2026-05-05 16:10 52.81459 12.51099 17546 ft 393 kts 149°
2026-05-05 16:11 52.79170 12.53554 16915 ft 389 kts 149°
2026-05-05 16:11 52.72450 12.60721 15963 ft 364 kts 149°
2026-05-05 16:12 52.70415 12.62903 15708 ft 334 kts 150°
2026-05-05 16:12 52.66799 12.66773 15195 ft 293 kts 151°
2026-05-05 16:13 52.61845 12.72003 14496 ft 277 kts 152°
2026-05-05 16:13 52.60429 12.73555 14282 ft 277 kts 149°
2026-05-05 16:13 52.58951 12.75303 14056 ft 276 kts 148°
2026-05-05 16:14 52.55912 12.79055 13180 ft 269 kts 147°
2026-05-05 16:14 52.52949 12.82696 11734 ft 263 kts 146°
2026-05-05 16:15 52.50029 12.86242 10378 ft 258 kts 146°
2026-05-05 16:15 52.47157 12.89713 9002 ft 254 kts 145°
2026-05-05 16:16 52.44639 12.93447 8280 ft 225 kts 137°
2026-05-05 16:16 52.42524 12.96940 7552 ft 205 kts 136°
2026-05-05 16:17 52.40541 13.00205 6606 ft 200 kts 136°
2026-05-05 16:17 52.39563 13.01813 6131 ft 198 kts 136°
2026-05-05 16:18 52.37612 13.05012 5024 ft 203 kts 136°
2026-05-05 16:18 52.36616 13.06639 4577 ft 201 kts 135°
2026-05-05 16:18 52.34673 13.09819 3654 ft 197 kts 134°
2026-05-05 16:19 52.33709 13.11399 3224 ft 195 kts 133°
2026-05-05 16:19 52.32760 13.12955 2998 ft 192 kts 134°
2026-05-05 16:19 52.30856 13.16082 3014 ft 194 kts 131°
2026-05-05 16:20 52.30054 13.19844 2998 ft 170 kts 84°
2026-05-05 16:20 52.30769 13.23436 3002 ft 166 kts 68°
2026-05-05 16:21 52.31614 13.26944 2896 ft 166 kts 67°
2026-05-05 16:22 52.32852 13.32102 2307 ft 160 kts 67°
2026-05-05 16:22 52.33661 13.35482 1876 ft 159 kts 66°
2026-05-05 16:23 52.34433 13.38712 1458 ft 145 kts 66°
2026-05-05 16:23 52.34789 13.40203 1282 ft 137 kts 66°
2026-05-05 16:23 52.35484 13.43110 890 ft 137 kts 66°
2026-05-05 16:24 52.35830 13.44564 702 ft 137 kts 68°
2026-05-05 16:24 52.36175 13.46016 508 ft 138 kts 69°
2026-05-05 16:24 52.36864 13.48914 161 ft 135 kts 68°
2026-05-05 16:25 52.37179 13.50266 354 ft 136 kts 69°
2026-05-05 16:25 52.37911 13.53613 1520 ft 169 kts 69°
2026-05-05 16:25 52.38474 13.55413 1914 ft 190 kts 45°
2026-05-05 16:26 52.41186 13.56081 2921 ft 219 kts 344°
2026-05-05 16:26 52.44079 13.54480 3002 ft 220 kts 341°
2026-05-05 16:27 52.45467 13.53433 2978 ft 221 kts 321°
2026-05-05 16:27 52.46340 13.51389 2978 ft 223 kts 288°
2026-05-05 16:27 52.46370 13.48861 2983 ft 226 kts 256°
2026-05-05 16:27 52.45803 13.46445 2970 ft 228 kts 247°
2026-05-05 16:28 52.45150 13.44073 2980 ft 229 kts 246°
2026-05-05 16:28 52.44483 13.41705 2975 ft 228 kts 246°
2026-05-05 16:28 52.43862 13.39343 2985 ft 229 kts 248°
2026-05-05 16:28 52.43241 13.36914 2981 ft 228 kts 249°
2026-05-05 16:29 52.42633 13.34545 2978 ft 228 kts 248°
2026-05-05 16:29 52.42019 13.32149 2984 ft 228 kts 248°
2026-05-05 16:29 52.41413 13.29763 2984 ft 227 kts 248°
2026-05-05 16:29 52.40801 13.27363 2983 ft 229 kts 249°
2026-05-05 16:30 52.40185 13.24967 2985 ft 228 kts 249°
2026-05-05 16:30 52.39574 13.22576 2986 ft 229 kts 248°
2026-05-05 16:30 52.38950 13.20173 2990 ft 229 kts 248°
2026-05-05 16:30 52.38328 13.17774 2983 ft 229 kts 247°
2026-05-05 16:31 52.37713 13.15380 2992 ft 229 kts 247°
2026-05-05 16:31 52.36761 13.13328 2981 ft 229 kts 216°
2026-05-05 16:31 52.35283 13.12446 2997 ft 230 kts 182°
2026-05-05 16:31 52.33741 13.12980 2994 ft 228 kts 152°
2026-05-05 16:32 52.32452 13.14477 2995 ft 228 kts 140°
2026-05-05 16:32 52.31233 13.16123 2978 ft 226 kts 132°
2026-05-05 16:32 52.30425 13.18287 2982 ft 224 kts 106°
2026-05-05 16:32 52.30262 13.20778 2985 ft 221 kts 81°
2026-05-05 16:33 52.30696 13.23164 2985 ft 217 kts 67°
2026-05-05 16:33 52.31233 13.25376 2971 ft 204 kts 67°
2026-05-05 16:33 52.31745 13.27494 2817 ft 197 kts 68°
2026-05-05 16:33 52.32238 13.29546 2593 ft 195 kts 66°
2026-05-05 16:34 52.32727 13.31580 2353 ft 189 kts 66°
2026-05-05 16:34 52.33195 13.33538 2118 ft 178 kts 68°
2026-05-05 16:34 52.33631 13.35357 1870 ft 166 kts 66°
2026-05-05 16:34 52.34037 13.37058 1649 ft 154 kts 66°
2026-05-05 16:35 52.34411 13.38620 1442 ft 142 kts 66°
2026-05-05 16:35 52.34764 13.40097 1264 ft 137 kts 67°
2026-05-05 16:35 52.35112 13.41555 1066 ft 138 kts 68°
2026-05-05 16:35 52.35458 13.43001 887 ft 136 kts 66°
2026-05-05 16:36 52.35802 13.44434 725 ft 134 kts 67°
2026-05-05 16:36 52.36132 13.45841 540 ft 134 kts 64°
2026-05-05 16:36 52.36475 13.47260 364 ft 132 kts 68°
2026-05-05 16:36 52.36805 13.48657 203 ft 133 kts 67°
2026-05-05 16:37 52.37115 13.49964 157 ft 110 kts 68°
2026-05-05 16:37 52.37335 13.50880 156 ft 59 kts 69°
2026-05-05 16:37 52.37443 13.51361 156 ft 34 kts 74°
2026-05-05 16:37 52.37444 13.51693 157 ft 28 kts 99°
2026-05-05 16:38 52.37427 13.51869 158 ft 0 kts 103°
2026-05-05 16:40 52.37424 13.51888 158 ft 5 kts 105°
2026-05-05 16:40 52.37365 13.51936 159 ft 16 kts 199°
2026-05-05 16:40 52.37302 13.51746 159 ft 21 kts 249°
2026-05-05 16:40 52.37247 13.51517 159 ft 22 kts 249°
2026-05-05 16:41 52.37192 13.51270 159 ft 24 kts 250°
2026-05-05 16:41 52.37137 13.51038 158 ft 19 kts 246°
2026-05-05 16:41 52.37086 13.50833 158 ft 20 kts 249°
2026-05-05 16:41 52.37035 13.50619 158 ft 22 kts 249°
2026-05-05 16:42 52.36979 13.50380 159 ft 19 kts 249°
2026-05-05 16:42 52.36931 13.50183 159 ft 13 kts 241°
2026-05-05 16:42 52.36873 13.50134 159 ft 8 kts 168°
2026-05-05 16:42 52.36809 13.50166 159 ft 11 kts 155°
2026-05-05 16:43 52.36727 13.50224 159 ft 14 kts 158°
2026-05-05 16:43 52.36626 13.50285 159 ft 17 kts 159°
2026-05-05 16:43 52.36528 13.50349 159 ft 7 kts 154°
2026-05-05 16:43 52.36505 13.50408 159 ft 7 kts 98°
2026-05-05 16:44 52.36507 13.50487 159 ft 6 kts 74°
2026-05-05 16:44 52.36509 13.50503 159 ft 2 kts 75°
2026-05-05 16:44 52.36512 13.50516 159 ft 0 kts 71°
2026-05-05 16:44 52.36512 13.50517 159 ft 0 kts 71°